Location: Alexandria
(38.8050°N, 77.0470°W)
Time: 01:07:17
(UTC-04:00)

N. Korean satellite - Pass Details

Date: 13 March 2018
Orbit: 459 x 511 km, 97.2° (Epoch: 23 June)

Event Time Altitude Azimuth Distance (km) Brightness Sun altitude
Rises 19:40:11 0° 194° (SSW) 2,522 10.4 -6.1°
Maximum altitude 19:45:28 25° 264° (W) 1,027 9.4 -7.1°
Drops below altitude 10° 19:48:31 10° 321° (NW) 1,696 10.0 -7.7°
Sets 19:50:53 0° 335° (NNW) 2,594 10.7 -8.1°
